Miscellaneous Local Product
Issued by NWS Hastings, NE

Home | Current Version | Previous Version | Text Only | Print | Product List | Glossary On
Versions: 1 2 3 4 5 6 7 8 9 10 11 12 13 14 15 16 17 18 19 20 21 22 23 24 25 26 27 28 29 30 31 32 33 34 35 36 37 38 39 40 41 42 43 44 45 46 47 48 49 50
000
AXUS43 KGID 231702
MISGRI

GID CWA HOURLY WEATHER ROUNDUP
NATIONAL WEATHER SERVICE HASTINGS NE
1200 PM CDT WED APR 23 2014

NOTE: "FAIR" INDICATES FEW OR NO CLOUDS BELOW 12,000 FEET WITH NO
SIGNIFICANT WEATHER AND/OR OBSTRUCTIONS TO VISIBILITY.

...SOUTH CENTRAL NEBRASKA...

CITY           SKY/WX    TMP DP  RH WIND       PRES   REMARKS
GRAND ISLAND   PTSUNNY   65  43  44 S33G43    29.65F
HASTINGS       PTSUNNY   65  42  43 S28G36    29.64F
KEARNEY        CLOUDY    66  45  45 S25G39    29.61F
ORD            PTSUNNY   67  42  40 S28G40    29.58F
YORK           PTSUNNY   63  41  45 S31G44    29.69F
AURORA         PTSUNNY   64  43  45 S30G41    29.67F
LEXINGTON      CLOUDY    69  49  48 S17G25    29.59S
HOLDREGE       CLOUDY    68  46  44 S29G40    29.59F
HEBRON         PTSUNNY   63  42  45 S25G37    29.73F

...NEBRASKA PANHANDLE...

CITY           SKY/WX    TMP DP  RH WIND       PRES   REMARKS
CHADRON        CLOUDY    66  28  24 W22G36    29.57R
ALLIANCE       CLOUDY    62  30  29 NW20      29.59S
SCOTTSBLUFF    PTSUNNY   64  30  27 NW25G36   29.63R
SIDNEY         CLOUDY    65  33  30 N22G31    29.64S

...WESTERN AND NORTH CENTRAL NEBRASKA...

CITY           SKY/WX    TMP DP  RH WIND       PRES   REMARKS
VALENTINE      CLOUDY    64  42  44 S17       29.51F
AINSWORTH      CLOUDY    67  44  43 S22       29.54F
ONEILL         PTSUNNY   65  37  35 S31G43    29.57F
BROKEN BOW     CLOUDY    66  44  45 S26G37    29.57F
IMPERIAL       CLOUDY    68  41  37 NW22      29.59R
NORTH PLATTE   CLOUDY    73  48  41 SW13      29.54F
MCCOOK         CLOUDY    75  47  36 W14       29.56R

...EASTERN NEBRASKA...

CITY           SKY/WX    TMP DP  RH WIND       PRES   REMARKS
NORFOLK        PTSUNNY   60  40  47 SE32G43   29.67F
SO SIOUX CITY  PTSUNNY   55  42  61 SE26G39   29.79F
TEKAMAH        CLOUDY    54  44  69 SE33G40   29.80F
COLUMBUS       CLOUDY    61  41  48 SE30G39   29.72F
ALBION         MOSUNNY   61  39  45 S32G41    29.67F
OMAHA EPPLEY   TSTM      50  43  77 SE28G33   29.83F
OFFUTT AFB     TSTM      52  46  82 SE24G33   29.84F
MILLARD        RAIN      50  42  73 SE20G31   29.82F
LINCOLN        CLOUDY    55  44  66 SE20G30   29.78F
NEBRASKA CITY  DRIZZLE   53  43  69 SE22G31   29.84F
BEATRICE       CLOUDY    58  42  54 SE22G28   29.79F
FALLS CITY     CLOUDY    59  45  59 SE17G23   29.86F

...NORTHERN KANSAS...

CITY           SKY/WX    TMP DP  RH WIND       PRES   REMARKS
GOODLAND       CLOUDY    73  45  36 SW20G26   29.59S
HILL CITY      PTSUNNY   77  48  35 S32G44    29.58F
PHILLIPSBURG   SUNNY     79  46  31 S24G33    29.61F
SMITH CENTER   SUNNY     68  48  49 SE31      29.64F
BELOIT         MOSUNNY   66  45  45 SE23      29.68F
HAYS           MOSUNNY  N/A N/A N/A S28G41    29.65F
RUSSELL        PTSUNNY   75  51  43 S22       29.67F
CONCORDIA      PTSUNNY   62  46  55 SE22      29.73F
SALINA         PTSUNNY   74  48  39 S20G32    29.75F
TOPEKA         PTSUNNY   68  41  37 SE18      29.88F



USA.gov is the U.S. government's official web portal to all federal, state and local government web resources and services.